443  
NZUS01 KABQ 231210  
RWRABQ  
NEW MEXICO REGIONAL WEATHER ROUNDUP  
NATIONAL WEATHER SERVICE ALBUQUERQUE NM  
600 AM MDT SAT OCT 23 2021  
 
-----NORTHERN NEW MEXICO AND NEARBY AREAS-----  
 
 
CITY SKY/WX TMP DP RH WIND PRES REMARKS
 
ALBUQUERQUE FAIR 46 27 47 E5 30.00S  
6HR MIN TEMP: 45; 6HR MAX TEMP: 59;  
 
BELEN FAIR 41 22 47 NE3 30.00S  
6HR MIN TEMP: 41; 6HR MAX TEMP: 52;  
 
SOCORRO FAIR 49 30 47 W8 29.98S  
6HR MIN TEMP: 48; 6HR MAX TEMP: 58;  
 
 
CITY SKY/WX TMP DP RH WIND PRES REMARKS
 
SANTA FE CLEAR 42 16 34 N12 30.03R  
6HR MIN TEMP: 41; 6HR MAX TEMP: 47;  
 
LOS ALAMOS CLEAR 49 16 27 E3 30.06S  
6HR MIN TEMP: 47; 6HR MAX TEMP: 56;  
 
TAOS CLEAR 33 13 43 E5 30.07S WCI 29  
6HR MIN TEMP: 29; 6HR MAX TEMP: 42;  
 
ANGEL FIRE FAIR 25 16 68 CALM 30.10R  
6HR MIN TEMP: 25; 6HR MAX TEMP: 36;  
 
FARMINGTON CLEAR 38 22 52 E7 29.97S  
6HR MIN TEMP: 38; 6HR MAX TEMP: 47;  
 
GRANTS CLEAR 31 23 74 CALM 30.07F  
6HR MIN TEMP: 31; 6HR MAX TEMP: 43;  
 
GALLUP CLEAR 35 25 66 CALM 30.03F  
6HR MIN TEMP: 33; 6HR MAX TEMP: 44;  
 
FLAGSTAFF CLEAR 32 26 78 CALM 30.02F  
6HR MIN TEMP: 32; 6HR MAX TEMP: 43;  
 
DURANGO CLEAR 30 20 66 CALM 30.02F  
6HR MIN TEMP: 27; 6HR MAX TEMP: 39;  
 
 
CITY SKY/WX TMP DP RH WIND PRES REMARKS
 
ALAMOSA NOT AVBL  
DENVER MOCLDY 46 17 31 SW8 29.84R  
6HR MIN TEMP: 42; 6HR MAX TEMP: 51;  
 
CLAYTON CLEAR 52 19 27 W8 29.86R  
6HR MIN TEMP: 44; 6HR MAX TEMP: 56;  
 
RATON CLEAR 37 13 37 N6 29.94R  
6HR MIN TEMP: 36; 6HR MAX TEMP: 49;  
 
CLINES CORNERS CLEAR 45 25 45 W9 30.06R  
6HR MIN TEMP: 40; 6HR MAX TEMP: 48;  
 
SANTA ROSA FAIR 46 29 51 S7 29.92S  
6HR MIN TEMP: 44; 6HR MAX TEMP: 54;  
 
TUCUMCARI CLEAR 55 41 59 SW13 29.85S  
6HR MIN TEMP: 50; 6HR MAX TEMP: 62;  
 
CLOVIS (AFB) CLEAR 55 49 80 SW3 29.92R  
6HR MIN TEMP: 54; 6HR MAX TEMP: 60;  
 
CLOVIS CLEAR 49 45 86 W10 29.93R  
6HR MIN TEMP: 49; 6HR MAX TEMP: 59;  
 
AMARILLO CLEAR 57 55 93 SW14 29.85S  
6HR MIN TEMP: 57; 6HR MAX TEMP: 64;  
 
-----SOUTHERN NEW MEXICO AND NEARBY AREAS-----  
 
 
CITY SKY/WX TMP DP RH WIND PRES REMARKS
 
T OR C CLEAR 53 30 41 W10 29.96R  
6HR MIN TEMP: 53; 6HR MAX TEMP: 64;  
 
DEMING CLEAR 49 31 49 W7 29.97S  
6HR MIN TEMP: 49; 6HR MAX TEMP: 59;  
 
TUCSON CLEAR 57 35 43 SE9 29.92S  
6HR MIN TEMP: 56; 6HR MAX TEMP: 65;  
 
EL PASO PTCLDY 60 39 45 SE8 29.92R  
6HR MIN TEMP: 60; 6HR MAX TEMP: 76;  
 
LAS CRUCES CLEAR 56 32 40 W3 29.96R  
6HR MIN TEMP: 55; 6HR MAX TEMP: 61;  
 
 
CITY SKY/WX TMP DP RH WIND PRES REMARKS
 
ALAMOGORDO CLEAR 57 41 54 CALM 29.95R  
RUIDOSO CLEAR 50 37 62 S6 30.08S  
ROSWELL CLEAR 55 39 54 SW5 29.90R  
6HR MIN TEMP: 55; 6HR MAX TEMP: 70;  
 
CARLSBAD PTCLDY 61 49 64 MISG 29.88R  
6HR MIN TEMP: 61; 6HR MAX TEMP: 70;  
 
HOBBS CLEAR 61 59 94 S9 29.92S  
 
CLICK HERE TO GO TO PREVIOUS BULLETINS.

The Nexlab NM Page Main Text Page